When you browse on this site, cookies collect data to enhance your experience and personalize the content and advertising you see.
Visit our Privacy Policy to learn more. By continuing to use the site, you agree to this use of cookies and data.
  • în România
  • Lista ţărilor
  • Pe 7 zile
  • Temperatura apei
  • Hartă satelitară
  • Meteo pe hartă
  • Widget-uri
  • user-avatar
    Intrare

    Meteo pe oră la Ashanivka

    Astăzi, 22 Februarie, Vineri

    Timp Temperatura Precipitaţii Vânt Presiune Umiditate
    00:00 -10°C° 0 mm 2 m/s 752 mmHg 86%
    01:00 -10°C° 0 mm 2 m/s 752 mmHg 86%
    02:00 -10°C° 0 mm 2 m/s 752 mmHg 86%
    03:00 -10°C° 0 mm 2 m/s 752 mmHg 87%
    04:00 -10°C° 0 mm 2 m/s 752 mmHg 87%
    05:00 -10°C° 0 mm 2 m/s 753 mmHg 88%
    06:00 -12°C° 0 mm 3 m/s 753 mmHg 88%
    07:00 -12°C° 0 mm 4 m/s 753 mmHg 88%
    08:00 -12°C° 0 mm 4 m/s 754 mmHg 88%
    09:00 -13°C° 0 mm 5 m/s 754 mmHg 86%
    10:00 -12°C° 0 mm 5 m/s 754 mmHg 84%
    11:00 -12°C° 0 mm 6 m/s 755 mmHg 82%
    12:00 -12°C° 0 mm 6 m/s 755 mmHg 81%
    13:00 -11°C° 0 mm 6 m/s 755 mmHg 79%
    14:00 -11°C° 0 mm 6 m/s 755 mmHg 78%
    15:00 -12°C° 0 mm 5 m/s 756 mmHg 80%
    16:00 -12°C° 0 mm 5 m/s 756 mmHg 82%
    17:00 -12°C° 0 mm 4 m/s 756 mmHg 84%
    18:00 -12°C° 0 mm 4 m/s 757 mmHg 85%
    19:00 -13°C° 0 mm 5 m/s 757 mmHg 86%
    20:00 -13°C° 0 mm 5 m/s 758 mmHg 87%
    21:00 -13°C° 0 mm 5 m/s 759 mmHg 88%
    22:00 -13°C° 0 mm 5 m/s 759 mmHg 89%
    23:00 -12°C° 0 mm 4 m/s 760 mmHg 90%

    Mâine, 23 Februarie, Sâmbătă

    Timp Temperatura Precipitaţii Vânt Presiune Umiditate
    00:00 -14°C° 0 mm 5 m/s 760 mmHg 90%
    01:00 -14°C° 0 mm 5 m/s 760 mmHg 91%
    02:00 -15°C° 0 mm 5 m/s 761 mmHg 91%
    03:00 -15°C° 0 mm 5 m/s 761 mmHg 91%
    04:00 -17°C° 0 mm 5 m/s 762 mmHg 91%
    05:00 -17°C° 0 mm 5 m/s 762 mmHg 92%
    06:00 -17°C° 0 mm 5 m/s 763 mmHg 92%
    07:00 -17°C° 0 mm 5 m/s 763 mmHg 92%
    08:00 -16°C° 0 mm 4 m/s 764 mmHg 92%
    09:00 -15°C° 0 mm 5 m/s 764 mmHg 91%
    10:00 -14°C° 0 mm 5 m/s 765 mmHg 89%
    11:00 -13°C° 0 mm 5 m/s 765 mmHg 88%
    12:00 -12°C° 0 mm 5 m/s 765 mmHg 87%
    13:00 -12°C° 0 mm 5 m/s 765 mmHg 86%
    14:00 -11°C° 0 mm 5 m/s 765 mmHg 85%
    15:00 -12°C° 0 mm 5 m/s 765 mmHg 86%
    16:00 -11°C° 0 mm 4 m/s 766 mmHg 87%
    17:00 -11°C° 0 mm 4 m/s 766 mmHg 87%
    18:00 -11°C° 0 mm 4 m/s 766 mmHg 88%
    19:00 -11°C° 0 mm 4 m/s 766 mmHg 88%
    20:00 -10°C° 0 mm 3 m/s 766 mmHg 88%
    21:00 -12°C° 0 mm 3 m/s 766 mmHg 89%
    22:00 -13°C° 0 mm 3 m/s 767 mmHg 90%
    23:00 -13°C° 0 mm 2 m/s 767 mmHg 91%

    Poimâine, 24 Februarie, Duminică

    Timp Temperatura Precipitaţii Vânt Presiune Umiditate
    00:00 -13°C° 0 mm 2 m/s 766 mmHg 91%
    01:00 -13°C° 0 mm 2 m/s 766 mmHg 91%
    02:00 -13°C° 0 mm 2 m/s 766 mmHg 91%
    03:00 -13°C° 0 mm 2 m/s 766 mmHg 91%
    04:00 -12°C° 0 mm 2 m/s 765 mmHg 90%
    05:00 -12°C° 0 mm 2 m/s 765 mmHg 89%
    06:00 -10°C° 0 mm 2 m/s 765 mmHg 87%
    07:00 -10°C° 0 mm 3 m/s 765 mmHg 84%
    08:00 -9°C° 0 mm 3 m/s 765 mmHg 82%
    09:00 -8°C° 0 mm 3 m/s 765 mmHg 79%
    10:00 -8°C° 0 mm 4 m/s 765 mmHg 76%
    11:00 -5°C° 0 mm 4 m/s 765 mmHg 73%
    12:00 -5°C° 0 mm 4 m/s 764 mmHg 75%
    13:00 -5°C° 0 mm 4 m/s 764 mmHg 77%
    14:00 -4°C° 0 mm 4 m/s 764 mmHg 80%
    15:00 -4°C° 0 mm 4 m/s 763 mmHg 81%
    16:00 -5°C° 0 mm 3 m/s 763 mmHg 83%
    17:00 -5°C° 0 mm 3 m/s 763 mmHg 84%
    18:00 -5°C° 0 mm 3 m/s 763 mmHg 84%
    19:00 -5°C° 0 mm 3 m/s 764 mmHg 84%
    20:00 -5°C° 0 mm 3 m/s 764 mmHg 84%
    21:00 -5°C° 0 mm 3 m/s 764 mmHg 85%
    22:00 -5°C° 0 mm 3 m/s 764 mmHg 86%
    23:00 -5°C° 0 mm 3 m/s 764 mmHg 87%

    25 Februarie, Luni

    Timp Temperatura Precipitaţii Vânt Presiune Umiditate
    00:00 -4°C° 0 mm 3 m/s 763 mmHg 86%
    01:00 -4°C° 0 mm 3 m/s 763 mmHg 85%
    02:00 -4°C° 0 mm 3 m/s 763 mmHg 85%
    03:00 -5°C° 0 mm 3 m/s 763 mmHg 84%
    04:00 -5°C° 0 mm 3 m/s 762 mmHg 83%
    05:00 -6°C° 0 mm 3 m/s 762 mmHg 83%
    06:00 -6°C° 0 mm 3 m/s 762 mmHg 83%
    07:00 -6°C° 0 mm 3 m/s 761 mmHg 84%
    08:00 -6°C° 0 mm 3 m/s 761 mmHg 85%
    09:00 -4°C° 0 mm 4 m/s 761 mmHg 86%
    10:00 -3°C° 0 mm 4 m/s 760 mmHg 88%
    11:00 -2°C° 0 mm 4 m/s 760 mmHg 90%
    12:00 -2°C° 0 mm 4 m/s 759 mmHg 91%
    13:00 -1°C° 0 mm 4 m/s 758 mmHg 93%
    14:00 -1°C° 0 mm 4 m/s 758 mmHg 94%
    15:00 -1°C° 0 mm 5 m/s 758 mmHg 93%
    16:00 -1°C° 0 mm 5 m/s 757 mmHg 92%
    17:00 -1°C° 0 mm 5 m/s 757 mmHg 91%
    18:00 -1°C° 0 mm 5 m/s 757 mmHg 91%
    19:00 -1°C° 0 mm 5 m/s 757 mmHg 92%
    20:00 -1°C° 0 mm 5 m/s 757 mmHg 93%
    21:00 -2°C° 0 mm 5 m/s 757 mmHg 92%
    22:00 -3°C° 0 mm 4 m/s 757 mmHg 92%
    23:00 -4°C° 0 mm 4 m/s 757 mmHg 91%

    26 Februarie, Marţi

    Timp Temperatura Precipitaţii Vânt Presiune Umiditate
    00:00 -4°C° 0 mm 4 m/s 756 mmHg 92%
    01:00 -5°C° 0 mm 4 m/s 756 mmHg 93%
    02:00 -5°C° 0 mm 4 m/s 756 mmHg 94%
    03:00 -5°C° 0 mm 4 m/s 755 mmHg 94%
    04:00 -5°C° 0 mm 4 m/s 755 mmHg 95%
    05:00 -5°C° 0 mm 4 m/s 754 mmHg 95%
    06:00 -5°C° 0 mm 4 m/s 753 mmHg 94%
    07:00 -5°C° 0 mm 4 m/s 753 mmHg 94%
    08:00 -5°C° 0 mm 4 m/s 752 mmHg 94%
    09:00 -5°C° 0 mm 5 m/s 751 mmHg 93%
    10:00 -2°C° 0 mm 5 m/s 749 mmHg 92%
    11:00 -1°C° 0 mm 5 m/s 748 mmHg 92%
    12:00 -1°C° 0 mm 5 m/s 747 mmHg 93%
    13:00 0°C° 0 mm 5 m/s 746 mmHg 94%
    14:00 0°C° 0 mm 5 m/s 744 mmHg 95%
    15:00 -1°C° 0.1 mm 6 m/s 744 mmHg 92%
    16:00 -1°C° 0.1 mm 7 m/s 743 mmHg 89%
    17:00 -2°C° 0.1 mm 8 m/s 743 mmHg 87%
    18:00 -1°C° 0.1 mm 8 m/s 742 mmHg 86%
    19:00 -1°C° 0.1 mm 9 m/s 742 mmHg 86%
    20:00 -1°C° 0.1 mm 9 m/s 742 mmHg 86%
    21:00 -1°C° 0.1 mm 9 m/s 742 mmHg 87%
    22:00 -2°C° 0.1 mm 8 m/s 742 mmHg 88%
    23:00 -2°C° 0.1 mm 8 m/s 742 mmHg 89%

    27 Februarie, Miercuri

    Timp Temperatura Precipitaţii Vânt Presiune Umiditate
    00:00 -2°C° 0 mm 7 m/s 743 mmHg 89%
    01:00 -2°C° 0 mm 7 m/s 743 mmHg 89%
    02:00 -2°C° 0 mm 7 m/s 744 mmHg 89%
    03:00 -3°C° 0 mm 7 m/s 745 mmHg 88%
    04:00 -4°C° 0 mm 7 m/s 745 mmHg 86%
    05:00 -6°C° 0 mm 7 m/s 746 mmHg 85%
    06:00 -5°C° 0 mm 6 m/s 746 mmHg 85%
    07:00 -5°C° 0 mm 6 m/s 747 mmHg 84%
    08:00 -5°C° 0 mm 6 m/s 747 mmHg 84%
    09:00 -4°C° 0 mm 6 m/s 748 mmHg 84%
    10:00 -4°C° 0 mm 6 m/s 748 mmHg 84%
    11:00 -3°C° 0 mm 6 m/s 748 mmHg 84%
    12:00 -3°C° 0.2 mm 6 m/s 748 mmHg 83%
    13:00 -3°C° 0.2 mm 7 m/s 748 mmHg 83%
    14:00 -3°C° 0.2 mm 7 m/s 748 mmHg 82%
    15:00 -3°C° 0.1 mm 6 m/s 748 mmHg 82%
    16:00 -4°C° 0.1 mm 6 m/s 748 mmHg 82%
    17:00 -5°C° 0.1 mm 5 m/s 749 mmHg 82%
    18:00 -4°C° 0 mm 4 m/s 749 mmHg 84%
    19:00 -5°C° 0 mm 3 m/s 749 mmHg 85%
    20:00 -6°C° 0 mm 3 m/s 749 mmHg 86%
    21:00 -5°C° 0 mm 2 m/s 749 mmHg 86%
    22:00 -5°C° 0 mm 2 m/s 749 mmHg 86%
    23:00 -6°C° 0 mm 2 m/s 749 mmHg 86%
    Arată mai mult